Boscobel, WI

7:24 AM CST on January 16, 2017 (GMT -0600)
Boscobel

Weather History for KOVS - November, 2012

Change the Weather History Date:

Friday, November 30, 2012

  Actual Average (KPDC) Record (KPDC)
Temperature  
Mean Temperature 38 °F -  
Max Temperature 39 °F 39 °F 60 °F (1962)
Min Temperature 37 °F 22 °F -8 °F (1976)
Degree Days  
Heating Degree Days 27    
Moisture  
Dew Point 34 °F    
Average Humidity 86    
Maximum Humidity 93    
Minimum Humidity 76    
Precipitation  
Precipitation 0.00 in - - ()
Sea Level Pressure  
Sea Level Pressure 30.14 in    
Wind  
Wind Speed 5 mph (ENE)    
Max Wind Speed 9 mph    
Max Gust Speed -    
Visibility 7 miles    
Events      
Averages and records for this station are not official NWS values.
T = Trace of Precipitation, MM = Missing Value Source: NWS Daily Summary

Daily Weather History Graph

Daily Weather History Graph

Search for Another Location

Airport or City:

Trip Planner

Search our weather history database for the weather conditions in past years. The results will help you decide how hot, cold, wet, or windy it might be!

Date:

Astronomy

Nov. 30, 2012 Rise Set
Actual Time 7:14 AM CST 4:28 PM CST
Civil Twilight 6:42 AM CST 5:00 PM CST
Nautical Twilight 6:06 AM CST 5:35 PM CST
Astronomical Twilight 5:32 AM CST 6:10 PM CST
Moon 6:24 PM CST (11/30) 8:46 AM CST (11/30)
Length of Visible Light 10h 18m
Length of Day
9h 14m
Waning Gibbous, 96% of the Moon is Illuminated
Nov 30
Waning Gibbous
Dec 6
Last Quarter
Dec 13
New
Dec 19
First Quarter
Dec 28
Full

Hourly Weather History & Observations

Time (CST) Temp. Windchill Dew Point Humidity Pressure Visibility Wind Dir Wind Speed Gust Speed Precip Events Conditions
12:53 AM 37.9 °F 34.4 °F 30.9 °F 76% 30.09 in 10.0 mi NE 4.6 mph - N/A   Overcast
1:53 AM 37.0 °F 31.6 °F 30.9 °F 79% 30.09 in 10.0 mi ENE 6.9 mph - N/A   Mostly Cloudy
2:53 AM 37.0 °F 34.5 °F 32.0 °F 82% 30.10 in 9.0 mi ENE 3.5 mph - N/A   Overcast
3:10 AM 37.4 °F 32.1 °F 32.0 °F 81% 30.07 in 9.0 mi NE 6.9 mph - N/A   Overcast
3:22 AM 37.4 °F 32.1 °F 32.0 °F 81% 30.07 in 9.0 mi ENE 6.9 mph - N/A   Overcast
3:53 AM 37.0 °F 32.4 °F 32.0 °F 82% 30.08 in 9.0 mi NE 5.8 mph - N/A   Overcast
4:53 AM 37.0 °F 33.3 °F 32.0 °F 82% 30.10 in 9.0 mi ENE 4.6 mph - N/A   Overcast
5:53 AM 37.0 °F 32.4 °F 33.1 °F 86% 30.10 in 9.0 mi NE 5.8 mph - N/A   Overcast
6:53 AM 37.0 °F 33.3 °F 33.1 °F 86% 30.13 in 8.0 mi NE 4.6 mph - N/A   Overcast
7:53 AM 37.9 °F 32.7 °F 33.1 °F 83% 30.14 in 6.0 mi NE 6.9 mph - N/A   Haze
8:53 AM 37.9 °F 31.5 °F 33.1 °F 83% 30.15 in 6.0 mi ENE 9.2 mph - N/A   Haze
9:53 AM 37.9 °F 32.7 °F 33.1 °F 83% 30.17 in 6.0 mi NE 6.9 mph - N/A   Haze
10:53 AM 37.9 °F 33.5 °F 34.0 °F 86% 30.17 in 6.0 mi ENE 5.8 mph - N/A   Overcast
11:53 AM 39.0 °F 34.8 °F 34.0 °F 82% 30.15 in 5.0 mi NE 5.8 mph - N/A   Haze
12:35 PM 39.2 °F 34.2 °F 35.6 °F 87% 30.12 in 5.0 mi ENE 6.9 mph - N/A   Overcast
12:53 PM 39.0 °F 34.0 °F 35.1 °F 86% 30.14 in 5.0 mi ENE 6.9 mph - N/A   Overcast
1:39 PM 39.2 °F 35.9 °F 35.6 °F 87% 30.12 in 6.0 mi NE 4.6 mph - N/A   Haze
1:53 PM 39.9 °F 36.7 °F 35.1 °F 83% 30.15 in 6.0 mi Variable 4.6 mph - N/A   Haze
2:53 PM 39.0 °F 35.7 °F 35.1 °F 86% 30.16 in 6.0 mi ENE 4.6 mph - N/A   Overcast
3:53 PM 39.0 °F 34.0 °F 35.1 °F 86% 30.18 in 5.0 mi East 6.9 mph - N/A   Overcast
4:53 PM 37.9 °F 33.5 °F 35.1 °F 89% 30.18 in 6.0 mi ENE 5.8 mph - N/A   Overcast
5:53 PM 37.0 °F 32.4 °F 35.1 °F 93% 30.19 in 5.0 mi ENE 5.8 mph - N/A   Overcast
6:44 PM 37.4 °F 34.9 °F 35.6 °F 93% 30.15 in 5.0 mi NE 3.5 mph - N/A   Overcast
6:53 PM 37.9 °F 33.5 °F 35.1 °F 89% 30.17 in 5.0 mi ENE 5.8 mph - N/A   Overcast
7:53 PM 37.9 °F - 35.1 °F 89% 30.17 in 5.0 mi Calm Calm - N/A   Overcast
8:22 PM 37.4 °F - 35.6 °F 93% 30.14 in 5.0 mi Calm Calm - N/A   Overcast
8:53 PM 37.0 °F 34.5 °F 35.1 °F 93% 30.16 in 5.0 mi NNE 3.5 mph - N/A   Overcast
9:53 PM 37.9 °F - 35.1 °F 89% 30.17 in 5.0 mi Calm Calm - N/A   Overcast
10:53 PM 39.0 °F 35.7 °F 35.1 °F 86% 30.15 in 6.0 mi East 4.6 mph - N/A   Overcast
11:53 PM 39.0 °F - 35.1 °F 86% 30.16 in 6.0 mi Calm Calm - N/A   Overcast